DW6471 Weather Reports


time (UTC)temp
C
wind
direction
speed
KPH
gust
KPH
rain 1hr
cm
rain 24hr
cm
rain mn
cm
humidity
%
barometer
mb
20260506044715 20 157 0.0 1.6 0.00 0.00 0.00 90 1013.8
20260506044216 20 157 0.0 1.6 0.00 0.00 0.00 90 1013.8
20260506043716 20 158 0.0 3.2 0.00 0.00 0.00 90 1013.9
20260506043216 20 162 0.0 3.2 0.00 0.00 0.00 90 1013.9
20260506042716 20 151 0.0 4.8 0.00 0.00 0.00 90 1013.9
20260506042215 20 151 0.0 4.8 0.00 0.00 0.00 90 1013.9
20260506041713 20 135 0.0 1.6 0.00 0.00 0.00 89 1014.0
20260506041214 20 135 0.0 1.6 0.00 0.00 0.00 90 1014.0
20260506040946 20 135 0.0 1.6 0.00 0.00 0.00 89 1014.0
20260506040214 20 135 0.0 3.2 0.00 0.00 0.00 89 1014.1
20260506035713 20 135 0.0 3.2 0.00 0.00 0.00 89 1014.1
20260506035213 20 131 0.0 1.6 0.00 0.00 0.00 89 1014.1
20260506034714 20 131 0.0 1.6 0.00 0.00 0.00 89 1014.2
20260506034213 20 131 0.0 1.6 0.00 0.00 0.00 89 1014.2
20260506033713 20 131 0.0 1.6 0.00 0.00 0.00 89 1014.3
20260506033212 20 131 0.0 1.6 0.00 0.00 0.00 88 1014.3
20260506032711 20 131 0.0 1.6 0.00 0.00 0.00 88 1014.4
20260506032442 20 131 0.0 1.6 0.00 0.00 0.00 88 1014.4
20260506031712 20 131 0.0 1.6 0.00 0.00 0.00 88 1014.4
20260506031212 20 129 0.0 1.6 0.00 0.00 0.00 87 1014.4
20260506030712 20 129 0.0 1.6 0.00 0.00 0.00 87 1014.3
20260506030211 20 129 0.0 1.6 0.00 0.00 0.00 87 1014.1
20260506025712 20 129 0.0 1.6 0.00 0.00 0.00 87 1014.1
20260506025212 20 128 0.0 1.6 0.00 0.00 0.00 86 1014.2
20260506024711 20 128 0.0 1.6 0.00 0.00 0.00 86 1014.2
20260506024212 20 129 0.0 1.6 0.00 0.00 0.00 86 1014.1
20260506023712 20 129 0.0 1.6 0.00 0.00 0.00 86 1014.1
20260506023212 21 129 0.0 1.6 0.00 0.00 0.00 86 1014.1
20260506022712 21 129 0.0 1.6 0.00 0.00 0.00 85 1014.0
20260506022211 21 129 0.0 1.6 0.00 0.00 0.00 85 1014.0
20260506021712 21 128 0.0 1.6 0.00 0.00 0.00 85 1014.0
20260506021209 21 129 0.0 1.6 0.00 0.00 0.00 84 1013.9
20260506020938 21 129 0.0 3.2 0.00 0.00 0.00 84 1013.9
20260506020438 21 129 0.0 3.2 0.00 0.00 0.00 84 1013.9
20260506015707 21 198 0.0 0.0 0.00 0.00 0.00 83 1013.9
20260506015208 21 198 0.0 3.2 0.00 0.00 0.00 83 1013.9
20260506014707 21 198 1.6 6.4 0.00 0.00 0.00 83 1013.9
20260506014212 21 108 1.6 3.2 0.00 0.00 0.00 82 1013.7
20260506014208 21 210 1.6 6.4 0.00 0.00 0.00 83 1013.9
20260506013208 21 221 1.6 3.2 0.00 0.00 0.00 82 1013.8
20260506012708 21 209 0.0 3.2 0.00 0.00 0.00 81 1013.7
20260506012206 22 147 0.0 3.2 0.00 0.00 0.00 81 1013.6
20260506011703 22 201 0.0 4.8 0.00 0.00 0.00 80 1013.7
20260506011204 22 169 0.0 4.8 0.00 0.00 0.00 80 1013.7
20260506010703 22 202 1.6 4.8 0.00 0.00 0.00 80 1013.6
20260506010202 22 190 1.6 3.2 0.00 0.00 0.00 79 1013.7
20260506005702 22 211 0.0 3.2 0.00 0.00 0.00 79 1013.7
20260506005201 22 204 0.0 3.2 0.00 0.00 0.00 78 1013.7
20260506004933 22 87 1.6 3.2 0.00 0.00 0.00 78 1013.6
20260506004200 22 208 1.6 6.4 0.00 0.00 0.00 77 1013.6
20260506003700 22 229 1.6 6.4 0.00 0.00 0.00 77 1013.5
20260506003159 22 205 1.6 3.2 0.00 0.00 0.00 76 1013.5
20260506002658 22 203 1.6 8.0 0.00 0.00 0.00 76 1013.5
20260506002157 23 211 1.6 9.7 0.00 0.00 0.00 75 1013.3
20260506001658 23 155 1.6 9.7 0.00 0.00 0.00 74 1013.4
20260506001158 23 212 1.6 6.4 0.00 0.00 0.00 74 1013.4
20260506000655 23 180 1.6 8.0 0.00 0.00 0.00 73 1013.3
20260506000156 23 167 1.6 8.0 0.00 0.00 0.00 73 1013.3
20260505235927 23 274 1.6 4.8 0.00 0.00 0.00 72 1013.4
20260505235154 23 221 1.6 6.4 0.00 0.00 0.00 71 1013.4
20260505234654 23 236 1.6 6.4 0.00 0.00 0.00 71 1013.5
20260505234154 23 205 1.6 14.5 0.00 0.00 0.00 70 1013.4
20260505233654 24 206 1.6 14.5 0.00 0.00 0.00 69 1013.5
20260505233155 24 212 1.6 6.4 0.00 0.00 0.00 68 1013.6
20260505233151 24 252 1.6 6.4 0.00 0.00 0.00 69 1013.6
20260505232149 24 203 1.6 6.4 0.00 0.00 0.00 67 1013.6
20260505231650 25 213 1.6 14.5 0.00 0.00 0.00 67 1013.5
20260505231421 25 205 3.2 14.5 0.00 0.00 0.00 66 1013.5
20260505230649 25 205 3.2 9.7 0.00 0.00 0.00 65 1013.5
20260505230148 25 209 1.6 9.7 0.00 0.00 0.00 64 1013.6
20260505225648 25 198 1.6 9.7 0.00 0.00 0.00 64 1013.6
20260505225146 25 228 1.6 9.7 0.00 0.00 0.00 63 1013.5
20260505224645 26 181 3.2 9.7 0.00 0.00 0.00 62 1013.5
20260505224144 26 205 1.6 9.7 0.00 0.00 0.00 62 1013.5
20260505223644 26 224 1.6 8.0 0.00 0.00 0.00 62 1013.5
20260505223144 25 179 1.6 8.0 0.00 0.00 0.00 64 1013.5
20260505222641 25 185 1.6 11.3 0.00 0.00 0.00 64 1013.5
20260505222142 25 221 3.2 11.3 0.00 0.00 0.00 63 1013.5
20260505221641 26 98 3.2 16.1 0.00 0.00 0.00 63 1013.4
20260505221139 26 233 3.2 16.1 0.00 0.00 0.00 61 1013.4
20260505220640 26 228 3.2 9.7 0.00 0.00 0.00 59 1013.3
20260505220137 26 127 3.2 8.0 0.00 0.00 0.00 61 1013.2
20260505215637 26 134 3.2 22.5 0.00 0.00 0.00 61 1013.3
20260505215138 26 186 4.8 22.5 0.00 0.00 0.00 60 1013.2
20260505214636 26 202 4.8 14.5 0.00 0.00 0.00 59 1013.1
20260505214135 27 212 3.2 12.9 0.00 0.00 0.00 59 1013.1
20260505213634 27 164 3.2 12.9 0.00 0.00 0.00 59 1013.2
20260505213134 26 134 3.2 12.9 0.00 0.00 0.00 59 1013.1
20260505212633 26 216 3.2 9.7 0.00 0.00 0.00 59 1013.1
20260505212134 26 213 3.2 9.7 0.00 0.00 0.00 57 1013.2
20260505211906 26 190 3.2 9.7 0.00 0.00 0.00 58 1013.2
20260505211134 27 212 3.2 9.7 0.00 0.00 0.00 58 1013.2
20260505210633 27 128 3.2 12.9 0.00 0.00 0.00 59 1013.3
20260505210138 27 198 3.2 9.7 0.00 0.00 0.00 56 1013.3
20260505210134 27 219 3.2 12.9 0.00 0.00 0.00 56 1013.3
20260505205134 27 107 4.8 12.9 0.00 0.00 0.00 57 1013.4
20260505204633 27 203 3.2 12.9 0.00 0.00 0.00 56 1013.4
20260505204404 27 231 3.2 14.5 0.00 0.00 0.00 58 1013.4
20260505203904 27 162 4.8 14.5 0.00 0.00 0.00 56 1013.5
20260505203134 27 215 3.2 11.3 0.00 0.00 0.00 54 1013.6
20260505202633 27 205 3.2 11.3 0.00 0.00 0.00 55 1013.6
20260505202133 27 223 3.2 9.7 0.00 0.00 0.00 55 1013.6
20260505201904 27 110 3.2 12.9 0.00 0.00 0.00 55 1013.6
20260505201133 27 202 3.2 16.1 0.00 0.00 0.00 53 1013.8
20260505200904 27 200 4.8 16.1 0.00 0.00 0.00 56 1013.8
20260505200133 27 217 4.8 12.9 0.00 0.00 0.00 56 1013.8
20260505195634 27 211 4.8 12.9 0.00 0.00 0.00 55 1013.8
20260505195132 27 243 4.8 17.7 0.00 0.00 0.00 56 1013.8
20260505194632 27 338 6.4 17.7 0.00 0.00 0.00 55 1014.0
20260505194131 27 226 4.8 16.1 0.00 0.00 0.00 57 1014.0
20260505193632 27 283 4.8 14.5 0.00 0.00 0.00 57 1014.1
20260505193132 27 329 3.2 14.5 0.00 0.00 0.00 55 1014.1
20260505192632 27 301 3.2 11.3 0.00 0.00 0.00 57 1014.1
20260505192132 27 205 4.8 12.9 0.00 0.00 0.00 55 1014.1
20260505191903 27 242 4.8 12.9 0.00 0.00 0.00 53 1014.1
20260505191132 28 217 3.2 11.3 0.00 0.00 0.00 53 1014.0
20260505190632 27 224 3.2 11.3 0.00 0.00 0.00 54 1014.1
20260505190131 28 225 3.2 11.3 0.00 0.00 0.00 53 1014.0
20260505185632 28 191 3.2 14.5 0.00 0.00 0.00 51 1014.1
20260505185132 28 21 3.2 14.5 0.00 0.00 0.00 51 1014.2
20260505184631 28 195 4.8 11.3 0.00 0.00 0.00 50 1014.3
20260505184132 28 314 3.2 11.3 0.00 0.00 0.00 51 1014.3
20260505183632 28 214 3.2 11.3 0.00 0.00 0.00 53 1014.4
20260505183131 28 239 4.8 16.1 0.00 0.00 0.00 53 1014.4
20260505182631 27 353 4.8 17.7 0.00 0.00 0.00 50 1014.5
20260505182402 27 219 4.8 17.7 0.00 0.00 0.00 53 1014.4
20260505181631 27 284 4.8 14.5 0.00 0.00 0.00 50 1014.6
20260505181131 27 225 3.2 11.3 0.00 0.00 0.00 55 1014.6
20260505180632 27 223 3.2 8.0 0.00 0.00 0.00 54 1014.6
20260505180131 27 127 4.8 12.9 0.00 0.00 0.00 54 1014.6
20260505175632 27 212 6.4 12.9 0.00 0.00 0.00 54 1014.7
20260505175131 27 198 4.8 12.9 0.00 0.00 0.00 53 1014.7
20260505174903 27 240 1.6 12.9 0.00 0.00 0.00 56 1014.8
20260505174130 27 205 3.2 11.3 0.00 0.00 0.00 54 1014.8
20260505173901 27 349 4.8 11.3 0.00 0.00 0.00 56 1014.7
20260505173130 27 211 3.2 11.3 0.00 0.00 0.00 53 1014.8
20260505172629 27 191 3.2 11.3 0.00 0.00 0.00 56 1014.7
20260505172130 27 98 3.2 11.3 0.00 0.00 0.00 55 1014.8
20260505171629 27 285 3.2 11.3 0.00 0.00 0.00 54 1014.8
20260505171130 27 205 3.2 11.3 0.00 0.00 0.00 55 1014.8
20260505170901 27 131 4.8 12.9 0.00 0.00 0.00 54 1014.9
20260505170130 27 203 4.8 12.9 0.00 0.00 0.00 54 1014.8
20260505165630 27 257 3.2 12.9 0.00 0.00 0.00 55 1014.7
20260505165134 27 204 3.2 14.5 0.00 0.00 0.00 55 1014.9
20260505165130 26 146 4.8 14.5 0.00 0.00 0.00 55 1014.8
20260505164130 26 223 3.2 9.7 0.00 0.00 0.00 56 1014.8
20260505163630 26 251 3.2 9.7 0.00 0.00 0.00 55 1014.9
20260505163130 26 116 3.2 6.4 0.00 0.00 0.00 56 1015.0
20260505162630 26 321 3.2 14.5 0.00 0.00 0.00 55 1014.8
20260505162130 26 212 3.2 14.5 0.00 0.00 0.00 55 1014.6
20260505161629 26 122 3.2 11.3 0.00 0.00 0.00 56 1014.7
20260505161130 26 184 4.8 12.9 0.00 0.00 0.00 55 1014.8
20260505160629 26 77 4.8 12.9 0.00 0.00 0.00 54 1014.8
20260505160130 26 47 4.8 12.9 0.00 0.00 0.00 54 1014.8
20260505153129 26 224 4.8 11.3 0.00 0.00 0.00 55 1015.0
20260505152630 25 228 4.8 12.9 0.00 0.00 0.00 56 1015.0
20260505152129 25 207 3.2 12.9 0.00 0.00 0.00 56 1014.8
20260505151630 25 153 3.2 9.7 0.00 0.00 0.00 58 1014.8
20260505151401 25 212 3.2 17.7 0.00 0.00 0.00 57 1014.7
20260505150901 25 235 3.2 17.7 0.00 0.00 0.00 57 1014.7
20260505150130 25 198 3.2 11.3 0.00 0.00 0.00 56 1014.6
20260505140622 23 180 3.2 9.7 0.00 0.00 0.00 63 1014.7
20260505140122 23 210 1.6 9.7 0.00 0.00 0.00 64 1014.7
20260505130113 18 178 1.6 6.4 0.00 0.00 0.00 77 1014.5
20260505124612 17 186 1.6 3.2 0.00 0.00 0.00 82 1014.6
20260505124111 17 186 0.0 3.2 0.00 0.00 0.00 84 1014.7
20260505123611 16 186 0.0 1.6 0.00 0.00 0.00 86 1014.6
20260505123111 16 186 0.0 1.6 0.00 0.00 0.00 87 1014.6
20260505122609 15 186 0.0 1.6 0.00 0.00 0.00 89 1014.5
20260505122108 15 186 0.0 1.6 0.00 0.00 0.00 90 1014.3
20260505121605 14 186 0.0 1.6 0.00 0.00 0.00 92 1014.4
20260505121336 13 186 0.0 1.6 0.00 0.00 0.00 93 1014.3
20260505120606 13 207 0.0 1.6 0.00 0.00 0.00 94 1014.3
20260505120105 -17 0.0 0.0 0.00 0.00 0.00 1014.2
20260505115512 -17 0.0 0.0 0.00 0.00 0.00 1014.3
20260505114915 -17 0.0 0.0 0.00 0.00 0.00 1014.2
20260505114415 -17 0.0 0.0 0.00 0.00 0.00 1014.1
20260505113912 -17 0.0 0.0 0.00 0.00 0.00 1014.0
20260505113542 -17 0.0 0.0 0.00 0.00 0.00 1013.9
20260505113039 -17 0.0 0.0 0.00 0.00 0.00 1013.9
20260505112214 -17 0.0 0.0 0.00 0.00 0.00 1013.8
20260505111713 -17 0.0 0.0 0.00 0.00 0.00 1013.7
20260505111214 -17 0.0 0.0 0.00 0.00 0.00 1013.7
20260505110705 -17 0.0 1.6 0.00 0.00 0.00 1013.7
20260505110114 -17 202 0.0 1.6 0.00 0.00 0.00 1013.7
20260505102035 11 207 0.0 0.0 0.00 0.00 0.00 94 1013.7
20260505101805 11 207 0.0 0.0 0.00 0.00 0.00 94 1013.7
20260505101307 11 207 0.0 0.0 0.00 0.00 0.00 94 1013.7
20260505100535 11 207 0.0 0.0 0.00 0.00 0.00 94 1013.7
20260505100036 11 207 0.0 0.0 0.00 0.00 0.00 94 1013.7
20260505095535 11 207 0.0 0.0 0.00 0.00 0.00 94 1013.7
20260505095036 11 207 0.0 0.0 0.00 0.00 0.00 94 1013.7
20260505094535 11 207 0.0 0.0 0.00 0.00 0.00 94 1013.6
20260505094036 11 207 0.0 0.0 0.00 0.00 0.00 94 1013.5
20260505093534 11 207 0.0 0.0 0.00 0.00 0.00 93 1013.6
20260505093035 11 207 0.0 0.0 0.00 0.00 0.00 93 1013.7
20260505092807 11 207 0.0 0.0 0.00 0.00 0.00 93 1013.8
20260505092033 11 207 0.0 0.0 0.00 0.00 0.00 93 1013.7
20260505091534 11 207 0.0 0.0 0.00 0.00 0.00 93 1013.5
20260505091033 11 207 0.0 0.0 0.00 0.00 0.00 93 1013.6
20260505090804 11 207 0.0 0.0 0.00 0.00 0.00 93 1013.6
20260505090034 11 207 0.0 0.0 0.00 0.00 0.00 93 1013.5
20260505085533 11 207 0.0 0.0 0.00 0.00 0.00 93 1013.5
20260505085304 11 207 0.0 0.0 0.00 0.00 0.00 93 1013.5
20260505084531 11 207 0.0 0.0 0.00 0.00 0.00 93 1013.5
20260505084032 11 207 0.0 0.0 0.00 0.00 0.00 93 1013.4
20260505083531 11 207 0.0 0.0 0.00 0.00 0.00 93 1013.3
20260505083301 11 207 0.0 0.0 0.00 0.00 0.00 93 1013.3
20260505082759 11 207 0.0 0.0 0.00 0.00 0.00 93 1013.3
20260505082029 11 207 0.0 0.0 0.00 0.00 0.00 93 1013.3
20260505081529 11 207 0.0 0.0 0.00 0.00 0.00 93 1013.3
20260505081029 11 207 0.0 0.0 0.00 0.00 0.00 93 1013.3
20260505080801 11 207 0.0 0.0 0.00 0.00 0.00 93 1013.4
20260505080030 11 207 0.0 0.0 0.00 0.00 0.00 93 1013.4
20260505075529 11 207 0.0 0.0 0.00 0.00 0.00 93 1013.5
20260505075029 11 207 0.0 0.0 0.00 0.00 0.00 93 1013.5
20260505074530 11 207 0.0 0.0 0.00 0.00 0.00 93 1013.5
20260505074029 11 207 0.0 0.0 0.00 0.00 0.00 93 1013.6
20260505073534 11 207 0.0 0.0 0.00 0.00 0.00 93 1013.7
20260505073530 11 207 0.0 0.0 0.00 0.00 0.00 93 1013.6
20260505072801 11 207 0.0 0.0 0.00 0.00 0.00 93 1013.6
20260505072029 11 207 0.0 0.0 0.00 0.00 0.00 93 1013.5
20260505071530 11 207 0.0 0.0 0.00 0.00 0.00 93 1013.6
20260505071029 11 207 0.0 0.0 0.00 0.00 0.00 92 1013.6
20260505070530 11 207 0.0 0.0 0.00 0.00 0.00 92 1013.6
20260505070259 11 207 0.0 0.0 0.00 0.00 0.00 92 1013.8
20260505065527 11 207 0.0 0.0 0.00 0.00 0.00 92 1013.9
20260505065028 11 207 0.0 0.0 0.00 0.00 0.00 92 1013.9
20260505064527 11 207 0.0 0.0 0.00 0.00 0.00 92 1013.9
20260505064027 11 207 0.0 0.0 0.00 0.00 0.00 92 1013.9
20260505063527 11 207 0.0 0.0 0.00 0.00 0.00 92 1014.0
20260505063025 11 207 0.0 0.0 0.00 0.00 0.00 92 1014.2
20260505062529 11 207 0.0 0.0 0.00 0.00 0.00 91 1014.3
20260505062525 11 207 0.0 0.0 0.00 0.00 0.00 91 1014.3
20260505061526 11 207 0.0 0.0 0.00 0.00 0.00 91 1014.3
20260505061255 12 207 0.0 0.0 0.00 0.00 0.00 91 1014.4
20260505060526 12 207 0.0 0.0 0.00 0.00 0.00 91 1014.4
20260505060025 12 207 0.0 0.0 0.00 0.00 0.00 91 1014.4
20260505055757 12 207 0.0 0.0 0.00 0.00 0.00 91 1014.4
20260505055025 12 207 0.0 0.0 0.00 0.00 0.00 91 1014.6
20260505054525 12 207 0.0 0.0 0.00 0.00 0.00 91 1014.6
20260505054023 12 207 0.0 0.0 0.00 0.00 0.00 91 1014.5
20260505053524 12 207 0.0 0.0 0.00 0.00 0.00 90 1014.6
20260505053254 12 207 0.0 0.0 0.00 0.00 0.00 90 1014.7
20260505052523 12 207 0.0 0.0 0.00 0.00 0.00 90 1014.8
20260505052254 12 207 0.0 0.0 0.00 0.00 0.00 90 1014.8
20260505051523 12 207 0.0 0.0 0.00 0.00 0.00 90 1014.8
20260505051253 12 207 0.0 0.0 0.00 0.00 0.00 90 1014.9
20260505050521 12 207 0.0 0.0 0.00 0.00 0.00 90 1014.9